Weather in Aksenovo-Zilovskoe

Russia / Zabaykalsky Krai     53°04′15″N   117°30′21″E
temp.,
°C
wind,
m/s
gust,
m/s
humid.,
%
clouds,
%
prec.,
mm/h
press.,
hPa
HPBL,
m
12 april, mon
mon1200:00−8n376385 0.0 1029264
03:00−12nw36465 0.0 1030190
06:00−12nnw38500 0.0 1030253
09:00−9nnw593810 0.0 10291528
12:00−6n5628100 0.0 10272413
15:00−5n4627100 0.0 10252581
18:00−5n4732100 0.0 10242221
21:00−9nnw11505 0.0 102510
13 april, tue
tue1300:00−10nw11590 0.0 102510
03:00−11wnw11620 0.0 102410
06:00−12wnw22650 0.0 102411
09:00−6nnw25375 0.0 1021707
12:00−2nw5625100 0.0 10172310
15:000nnw4623100 0.0 10142482
18:000nnw352454 0.0 10122170
21:00−6ese11421 0.0 101210
14 april, wed
wed1400:00−7sse114784 0.0 101110
03:00−6sse1143100 0.0 100910
06:00−7w1145100 0.0 100710
09:00−2nw35445 0.0 1007565
12:00+2nnw573795 0.0 10061761
15:00+5n5726100 0.0 10052883
18:00+4n452192 0.0 10062514
21:00−1nne223575 0.0 100911
15 april, thu
thu1500:00−4ene2266100 0.0 101030
03:00−5ne2276100 0.0 100920
06:00−6nne2273100 0.0 100814
09:00−2ene2353100 0.0 1007377
12:00+1ene3438100 0.0 10051434
15:00+3ne4428100 0.1 10032356
18:00+2ene4536100 0.1 10041758
21:00−1ne3747100 0.1 1007195
16 april, fri
fri1600:00−4nne247380 0.0 1008102
03:00−6nnw2389100 0.0 100948
06:00−7nnw3383100 0.0 101145
09:00−1n51049100 0.0 10101254
12:00+2n6931100 0.0 10092157
15:00+4n562197 0.0 10082678
18:00+4nnw452254 0.0 10092229
21:00−2nnw113537 0.0 101010